datetime,storage
1977-03-13,38.0
1977-03-14,72.8462982
1977-03-15,90.1539536
1977-03-16,109.769287
1977-03-17,123.961334
1977-03-18,686.0
1977-03-19,2500.0
1977-03-20,4640.0
1977-03-21,6006.0
1977-03-22,6199.0
1977-03-23,7067.0
1977-03-24,7618.0
1977-03-25,8036.0
1977-03-26,7889.0
1977-03-27,7660.0
1977-03-28,7556.0
1977-03-29,7433.0
1977-03-30,7433.0
1977-03-31,7449.0
1977-04-01,8462.0
1977-04-02,8078.0
1977-04-03,8206.0
1977-04-04,8078.0
1977-04-05,8142.0
1977-04-06,8312.0
1977-04-07,7701.0
1977-04-08,9429.0
1977-04-09,11960.0
1977-04-10,14654.0
1977-04-11,16287.0
1977-04-12,15913.0
1977-04-13,16431.0
1977-04-14,16056.0
1977-04-15,16171.0
1977-04-16,16373.0
1977-04-17,16315.0
1977-04-18,15913.0
1977-04-19,16085.0
1977-04-20,16518.0
1977-04-21,16085.0
1977-04-22,15403.0
1977-04-23,14030.0
1977-04-24,12387.0
1977-04-25,10912.0
1977-04-26,9452.0
1977-04-27,9295.0
1977-04-28,9006.0
1977-04-29,8570.0
1977-04-30,7026.0
1977-05-01,6179.0
1977-05-02,5968.0
1977-05-03,5892.0
1977-05-04,5892.0
1977-05-05,5930.0
1977-05-06,6179.0
1977-05-07,6648.0
1977-05-08,7474.0
1977-05-09,8484.0
1977-05-10,9497.0
1977-05-11,10322.0
1977-05-12,9929.0
1977-05-13,11345.0
1977-05-14,12286.0
1977-05-15,12135.0
1977-05-16,12286.0
1977-05-17,13577.0
1977-05-18,11176.0
1977-05-19,12035.0
1977-05-20,10698.0
1977-05-21,9791.0
1977-05-22,9655.0
1977-05-23,10650.0
1977-05-24,11055.0
1977-05-25,11589.0
1977-05-26,11712.0
1977-05-27,11836.0
1977-05-28,11200.0
1977-05-29,9883.0
1977-05-30,9206.0
1977-05-31,9206.0
1977-06-01,10650.0
1977-06-02,11491.0
1977-06-03,12210.0
1977-06-04,12590.0
1977-06-05,12693.0
1977-06-06,12060.0
1977-06-07,12185.0
1977-06-08,12744.0
1977-06-09,12210.0
1977-06-10,12185.0
1977-06-11,12311.0
1977-06-12,9883.0
1977-06-13,10182.0
1977-06-14,10229.0
1977-06-15,9997.0
1977-06-16,10159.0
1977-06-17,10721.0
1977-06-18,9997.0
1977-06-19,9339.0
1977-06-20,10769.0
1977-06-21,11737.0
1977-06-22,13288.0
1977-06-23,12744.0
1977-06-24,14245.0
1977-06-25,14164.0
1977-06-26,14874.0
1977-06-27,14681.0
1977-06-28,13183.0
1977-06-29,13340.0
1977-06-30,12872.0
1977-07-01,14137.0
1977-07-02,12950.0
1977-07-03,13001.0
1977-07-04,12311.0
1977-07-05,13603.0
1977-07-06,13869.0
1977-07-07,13976.0
1977-07-08,14110.0
1977-07-09,12872.0
1977-07-10,11224.0
1977-07-11,10322.0
1977-07-12,11935.0
1977-07-13,13340.0
1977-07-14,13471.0
1977-07-15,13471.0
1977-07-16,12463.0
1977-07-17,11151.0
1977-07-18,11861.0
1977-07-19,12463.0
1977-07-20,12135.0
1977-07-21,11712.0
1977-07-22,12950.0
1977-07-23,12135.0
1977-07-24,12185.0
1977-07-25,10840.0
1977-07-26,11935.0
1977-07-27,12098.0
1977-07-28,12821.0
1977-07-29,13340.0
1977-07-30,13209.0
1977-07-31,12412.0
1977-08-01,13471.0
1977-08-02,13288.0
1977-08-03,13209.0
1977-08-04,13603.0
1977-08-05,12847.0
1977-08-06,11786.0
1977-08-07,13445.0
1977-08-08,12387.0
1977-08-09,12035.0
1977-08-10,12311.0
1977-08-11,13656.0
1977-08-12,14626.0
1977-08-13,13001.0
1977-08-14,10650.0
1977-08-15,12085.0
1977-08-16,12924.0
1977-08-17,12387.0
1977-08-18,12976.0
1977-08-19,14110.0
1977-08-20,12185.0
1977-08-21,10935.0
1977-08-22,11540.0
1977-08-23,11737.0
1977-08-24,11786.0
1977-08-25,12514.0
1977-08-26,12924.0
1977-08-27,11079.0
1977-08-28,10136.0
1977-08-29,10532.0
1977-08-30,11565.0
1977-08-31,11737.0
1977-09-01,13053.0
1977-09-02,12539.0
1977-09-03,11638.0
1977-09-04,11321.0
1977-09-05,11663.0
1977-09-06,12976.0
1977-09-07,12847.0
1977-09-08,12872.0
1977-09-09,12821.0
1977-09-10,12311.0
1977-09-11,11565.0
1977-09-12,12565.0
1977-09-13,12160.0
1977-09-14,11638.0
1977-09-15,11737.0
1977-09-16,11321.0
1977-09-17,11886.0
1977-09-18,12110.0
1977-09-19,13082.0
1977-09-20,13869.0
1977-09-21,13922.0
1977-09-22,13524.0
1977-09-23,13609.0
1977-09-24,13262.0
1977-09-25,13603.0
1977-09-26,13366.0
1977-09-27,13340.0
1977-09-28,13603.0
1977-09-29,13419.0
1977-09-30,13736.0
1977-10-01,13340.0
1977-10-02,13340.0
1977-10-03,13340.0
1977-10-04,13603.0
1977-10-05,13630.0
1977-10-06,13340.0
1977-10-07,13340.0
1977-10-08,13869.0
1977-10-09,13635.0
1977-10-10,13340.0
1977-10-11,12950.0
1977-10-12,13340.0
1977-10-13,13079.0
1977-10-14,12311.0
1977-10-15,11467.0
1977-10-16,10229.0
1977-10-17,8875.0
1977-10-18,8484.0
1977-10-19,8700.0
1977-10-20,8376.0
1977-10-21,8462.0
1977-10-22,8962.0
1977-10-23,8837.0
1977-10-24,8635.0
1977-10-25,8184.0
1977-10-26,8875.0
1977-10-27,8700.0
1977-10-28,8398.0
1977-10-29,8613.0
1977-10-30,8484.0
1977-10-31,8462.0
1977-11-01,8613.0
1977-11-02,8376.0
1977-11-03,8462.0
1977-11-04,8570.0
1977-11-05,8419.0
1977-11-06,8831.0
1977-11-07,8398.0
1977-11-08,8505.0
1977-11-09,8184.0
1977-11-10,8142.0
1977-11-11,8419.0
1977-11-12,8787.0
1977-11-13,8376.0
1977-11-14,8057.0
1977-11-15,8918.0
1977-11-16,8398.0
1977-11-17,8398.0
1977-11-18,8441.0
1977-11-19,8291.0
1977-11-20,8100.0
1977-11-21,8962.0
1977-11-22,8896.0
1977-11-23,8527.0
1977-11-24,7931.0
1977-11-25,8376.0
1977-11-26,8441.0
1977-11-27,8765.0
1977-11-28,8853.0
1977-11-29,8787.0
1977-11-30,8657.0
1977-12-01,8462.0
1977-12-02,8754.0
1977-12-03,8398.0
1977-12-04,8227.0
1977-12-05,8613.0
1977-12-06,8700.0
1977-12-07,8527.0
1977-12-08,8678.0
1977-12-09,8574.0
1977-12-10,8462.0
1977-12-11,7952.0
1977-12-12,7453.0
1977-12-13,7412.0
1977-12-14,6846.0
1977-12-15,6490.0
1977-12-16,5987.0
1977-12-17,5478.0
1977-12-18,5000.0
1977-12-19,4729.0
1977-12-20,4463.0
1977-12-21,4945.0
1977-12-22,5396.0
1977-12-23,5797.0
1977-12-24,5761.0
1977-12-25,5778.0
1977-12-26,5865.0
1977-12-27,6354.0
1977-12-28,7020.0
1977-12-29,7812.0
1977-12-30,8003.0
1977-12-31,7703.0
1978-01-01,7606.0
1978-01-02,7455.0
1978-01-03,7764.0
1978-01-04,7847.0
1978-01-05,7910.0
1978-01-06,7556.0
1978-01-07,7567.0
1978-01-08,7332.0
1978-01-09,7119.0
1978-01-10,7639.0
1978-01-11,7147.0
1978-01-12,6530.0
1978-01-13,7087.0
1978-01-14,6886.0
1978-01-15,6528.0
1978-01-16,6683.0
1978-01-17,6747.0
1978-01-18,6677.0
1978-01-19,7371.0
1978-01-20,7290.0
1978-01-21,6826.0
1978-01-22,6006.0
1978-01-23,6846.0
1978-01-24,6393.0
1978-01-25,6510.0
1978-01-26,7006.0
1978-01-27,6334.0
1978-01-28,6510.0
1978-01-29,6160.0
1978-01-30,6334.0
1978-01-31,6727.0
1978-02-01,6608.0
1978-02-02,7141.0
1978-02-03,6608.0
1978-02-04,6141.0
1978-02-05,5805.0
1978-02-06,6577.0
1978-02-07,6218.0
1978-02-08,6624.0
1978-02-09,6303.0
1978-02-10,6723.0
1978-02-11,6974.0
1978-02-12,6537.0
1978-02-13,6500.0
1978-02-14,6371.0
1978-02-15,6528.0
1978-02-16,6340.0
1978-02-17,6284.0
1978-02-18,6191.0
1978-02-19,6118.0
1978-02-20,6806.0
1978-02-21,6826.0
1978-02-22,6567.0
1978-02-23,6522.0
1978-02-24,5731.0
1978-02-25,6232.0
1978-02-26,6006.0
1978-02-27,6709.0
1978-02-28,6334.0
1978-03-01,6652.0
1978-03-02,6673.0
1978-03-03,6481.0
1978-03-04,6224.0
1978-03-05,6315.0
1978-03-06,6669.0
1978-03-07,6485.0
1978-03-08,6640.0
1978-03-09,6695.0
1978-03-10,6982.0
1978-03-11,6650.0
1978-03-12,6228.0
1978-03-13,6210.0
1978-03-14,5991.0
1978-03-15,5603.0
1978-03-16,6589.0
1978-03-17,6420.0
1978-03-18,6354.0
1978-03-19,5678.0
1978-03-20,6569.0
1978-03-21,6563.0
1978-03-22,6766.0
1978-03-23,6794.0
1978-03-24,6567.0
1978-03-25,6201.0
1978-03-26,6218.0
1978-03-27,6778.0
1978-03-28,6663.0
1978-03-29,6338.0
1978-03-30,6154.0
1978-03-31,6477.0
1978-04-01,6535.0
1978-04-02,6264.0
1978-04-03,6524.0
1978-04-04,6272.0
1978-04-05,6932.0
1978-04-06,7030.0
1978-04-07,7000.0
1978-04-08,6772.0
1978-04-09,7087.0
1978-04-10,6900.0
1978-04-11,7010.0
1978-04-12,7178.0
1978-04-13,8100.0
1978-04-14,9033.0
1978-04-15,7392.0
1978-04-16,7180.0
1978-04-17,7614.0
1978-04-18,7965.0
1978-04-19,8631.0
1978-04-20,8441.0
1978-04-21,7462.0
1978-04-22,6152.0
1978-04-23,5215.0
1978-04-24,4438.0
1978-04-25,4644.0
1978-04-26,4875.0
1978-04-27,4594.0
1978-04-28,4569.0
1978-04-29,4749.0
1978-04-30,4516.0
1978-05-01,4855.0
1978-05-02,4628.0
1978-05-03,4331.0
1978-05-04,4272.0
1978-05-05,4349.0
1978-05-06,4287.0
1978-05-07,4486.0
1978-05-08,4166.0
1978-05-09,4713.0
1978-05-10,4783.0
1978-05-11,4463.0
1978-05-12,4851.0
1978-05-13,5091.0
1978-05-14,4839.0
1978-05-15,4814.0
1978-05-16,4842.0
1978-05-17,4963.0
1978-05-18,4686.0
1978-05-19,4596.0
1978-05-20,4571.0
1978-05-21,4893.0
1978-05-22,4688.0
1978-05-23,4747.0
1978-05-24,4724.0
1978-05-25,4742.0
1978-05-26,4833.0
1978-05-27,4484.0
1978-05-28,4819.0
1978-05-29,4670.0
1978-05-30,4895.0
1978-05-31,4525.0
1978-06-01,4817.0
1978-06-02,4830.0
1978-06-03,4822.0
1978-06-04,4920.0
1978-06-05,4724.0
1978-06-06,4904.0
1978-06-07,8045.0
1978-06-08,9210.0
1978-06-09,9687.0
1978-06-10,10835.0
1978-06-11,12311.0
1978-06-12,13577.0
1978-06-13,13898.0
1978-06-14,14126.0
1978-06-15,13984.0
1978-06-16,13429.0
1978-06-17,13090.0
1978-06-18,13183.0
1978-06-19,12785.0
1978-06-20,13458.0
1978-06-21,12852.0
1978-06-22,13466.0
1978-06-23,14356.0
1978-06-24,14419.0
1978-06-25,14086.0
1978-06-26,15246.0
1978-06-27,15822.0
1978-06-28,15959.0
1978-06-29,16911.0
1978-06-30,16819.0
1978-07-01,16699.0
1978-07-02,16504.0
1978-07-03,16501.0
1978-07-04,16623.0
1978-07-05,16691.0
1978-07-06,16708.0
1978-07-07,16682.0
1978-07-08,16693.0
1978-07-09,16518.0
1978-07-10,16513.0
1978-07-11,16492.0
1978-07-12,16379.0
1978-07-13,16504.0
1978-07-14,16837.0
1978-07-15,16623.0
1978-07-16,16117.0
1978-07-17,16705.0
1978-07-18,15982.0
1978-07-19,16068.0
1978-07-20,16122.0
1978-07-21,16423.0
1978-07-22,16539.0
1978-07-23,16382.0
1978-07-24,16229.0
1978-07-25,16539.0
1978-07-26,16626.0
1978-07-27,16682.0
1978-07-28,16336.0
1978-07-29,16243.0
1978-07-30,15794.0
1978-07-31,16125.0
1978-08-01,16220.0
1978-08-02,16200.0
1978-08-03,16385.0
1978-08-04,16321.0
1978-08-05,16507.0
1978-08-06,16504.0
1978-08-07,16495.0
1978-08-08,16507.0
1978-08-09,16664.0
1978-08-10,16327.0
1978-08-11,16504.0
1978-08-12,16423.0
1978-08-13,16408.0
1978-08-14,16394.0
1978-08-15,16510.0
1978-08-16,16536.0
1978-08-17,16539.0
1978-08-18,16122.0
1978-08-19,15842.0
1978-08-20,15962.0
1978-08-21,16237.0
1978-08-22,16088.0
1978-08-23,16612.0
1978-08-24,16533.0
1978-08-25,16388.0
1978-08-26,16396.0
1978-08-27,16518.0
1978-08-28,16524.0
1978-08-29,16699.0
1978-08-30,15939.0
1978-08-31,16356.0
1978-09-01,16240.0
1978-09-02,16524.0
1978-09-03,16223.0
1978-09-04,15965.0
1978-09-05,16252.0
1978-09-06,16243.0
1978-09-07,16217.0
1978-09-08,15968.0
1978-09-09,15839.0
1978-09-10,16157.0
1978-09-11,16085.0
1978-09-12,16214.0
1978-09-13,16373.0
1978-09-14,16368.0
1978-09-15,16379.0
1978-09-16,15833.0
1978-09-17,16125.0
1978-09-18,15635.0
1978-09-19,16214.0
1978-09-20,16399.0
1978-09-21,15953.0
1978-09-22,16240.0
1978-09-23,15936.0
1978-09-24,16226.0
1978-09-25,16108.0
1978-09-26,15959.0
1978-09-27,16946.0
1978-09-28,17159.0
1978-09-29,16958.0
1978-09-30,16828.0
1978-10-01,16793.0
1978-10-02,16834.0
1978-10-03,16931.0
1978-10-04,17005.0
1978-10-05,17129.0
1978-10-06,17079.0
1978-10-07,16902.0
1978-10-08,16828.0
1978-10-09,16981.0
1978-10-10,16816.0
1978-10-11,17197.0
1978-10-12,17111.0
1978-10-13,16805.0
1978-10-14,16203.0
1978-10-15,16958.0
1978-10-16,16975.0
1978-10-17,17105.0
1978-10-18,16928.0
1978-10-19,16682.0
1978-10-20,16905.0
1978-10-21,16964.0
1978-10-22,16816.0
1978-10-23,16696.0
1978-10-24,16696.0
1978-10-25,16793.0
1978-10-26,16137.0
1978-10-27,16498.0
1978-10-28,16565.0
1978-10-29,16068.0
1978-10-30,16714.0
1978-10-31,16203.0
1978-11-01,16266.0
1978-11-02,16102.0
1978-11-03,16261.0
1978-11-04,16603.0
1978-11-05,16454.0
1978-11-06,16905.0
1978-11-07,16819.0
1978-11-08,16289.0
1978-11-09,16457.0
1978-11-10,16022.0
1978-11-11,15865.0
1978-11-12,14495.0
1978-11-13,14172.0
1978-11-14,15249.0
1978-11-15,15913.0
1978-11-16,15851.0
1978-11-17,16131.0
1978-11-18,16114.0
1978-11-19,16131.0
1978-11-20,16615.0
1978-11-21,16767.0
1978-11-22,16571.0
1978-11-23,16226.0
1978-11-24,15757.0
1978-11-25,16359.0
1978-11-26,15851.0
1978-11-27,15663.0
1978-11-28,16160.0
1978-11-29,16411.0
1978-11-30,16203.0
1978-12-01,16059.0
1978-12-02,17094.0
1978-12-03,16632.0
1978-12-04,16051.0
1978-12-05,16399.0
1978-12-06,16266.0
1978-12-07,16091.0
1978-12-08,16324.0
1978-12-09,16042.0
1978-12-10,15771.0
1978-12-11,15572.0
1978-12-12,16186.0
1978-12-13,16629.0
1978-12-14,16154.0
1978-12-15,16226.0
1978-12-16,16013.0
1978-12-17,15768.0
1978-12-18,16013.0
1978-12-19,15962.0
1978-12-20,15870.0
1978-12-21,15556.0
1978-12-22,16252.0
1978-12-23,16292.0
1978-12-24,15916.0
1978-12-25,16275.0
1978-12-26,16507.0
1978-12-27,16142.0
1978-12-28,16045.0
1978-12-29,16504.0
1978-12-30,16446.0
1978-12-31,16051.0
1979-01-01,16376.0
1979-01-02,16246.0
1979-01-03,16597.0
1979-01-04,15587.0
1979-01-05,16696.0
1979-01-06,15567.0
1979-01-07,16670.0
1979-01-08,15474.0
1979-01-09,16454.0
1979-01-10,16664.0
1979-01-11,16673.0
1979-01-12,16428.0
1979-01-13,16632.0
1979-01-14,16160.0
1979-01-15,15572.0
1979-01-16,16545.0
1979-01-17,16088.0
1979-01-18,16359.0
1979-01-19,15822.0
1979-01-20,14251.0
1979-01-21,13800.0
1979-01-22,14452.0
1979-01-23,15118.0
1979-01-24,15899.0
1979-01-25,16151.0
1979-01-26,15745.0
1979-01-27,16019.0
1979-01-28,16028.0
1979-01-29,16287.0
1979-01-30,16370.0
1979-01-31,16501.0
1979-02-01,16350.0
1979-02-02,16443.0
1979-02-03,16333.0
1979-02-04,16333.0
1979-02-05,16016.0
1979-02-06,16008.0
1979-02-07,15913.0
1979-02-08,16022.0
1979-02-09,16984.0
1979-02-10,17553.0
1979-02-11,17553.0
1979-02-12,17376.0
1979-02-13,17105.0
1979-02-14,16978.0
1979-02-15,17031.0
1979-02-16,16908.0
1979-02-17,16770.0
1979-02-18,16603.0
1979-02-19,16362.0
1979-02-20,16142.0
1979-02-21,15922.0
1979-02-22,15714.0
1979-02-23,16518.0
1979-02-24,16778.0
1979-02-25,16183.0
1979-02-26,17088.0
1979-02-27,16981.0
1979-02-28,16749.0
1979-03-01,16843.0
1979-03-02,17011.0
1979-03-03,16399.0
1979-03-04,16673.0
1979-03-05,16934.0
1979-03-06,16315.0
1979-03-07,16396.0
1979-03-08,16688.0
1979-03-09,16370.0
1979-03-10,16702.0
1979-03-11,16443.0
1979-03-12,16194.0
1979-03-13,17026.0
1979-03-14,16781.0
1979-03-15,17120.0
1979-03-16,16635.0
1979-03-17,16582.0
1979-03-18,16740.0
1979-03-19,17165.0
1979-03-20,17553.0
1979-03-21,17448.0
1979-03-22,17292.0
1979-03-23,17290.0
1979-03-24,17046.0
1979-03-25,17002.0
1979-03-26,17108.0
1979-03-27,17251.0
1979-03-28,17144.0
1979-03-29,17496.0
1979-03-30,17478.0
1979-03-31,17159.0
1979-04-01,17209.0
1979-04-02,17245.0
1979-04-03,17430.0
1979-04-04,16890.0
1979-04-05,16620.0
1979-04-06,16194.0
1979-04-07,16096.0
1979-04-08,16647.0
1979-04-09,17230.0
1979-04-10,17364.0
1979-04-11,17209.0
1979-04-12,16858.0
1979-04-13,16990.0
1979-04-14,16872.0
1979-04-15,16263.0
1979-04-16,16743.0
1979-04-17,16629.0
1979-04-18,17114.0
1979-04-19,16723.0
1979-04-20,16846.0
1979-04-21,16318.0
1979-04-22,16911.0
1979-04-23,17388.0
1979-04-24,16872.0
1979-04-25,16119.0
1979-04-26,16834.0
1979-04-27,17454.0
1979-04-28,16964.0
1979-04-29,17026.0
1979-04-30,16478.0
1979-05-01,16688.0
1979-05-02,17052.0
1979-05-03,16266.0
1979-05-04,17412.0
1979-05-05,16816.0
1979-05-06,16504.0
1979-05-07,17508.0
1979-05-08,17328.0
1979-05-09,17284.0
1979-05-10,15982.0
1979-05-11,15973.0
1979-05-12,16542.0
1979-05-13,17505.0
1979-05-14,17129.0
1979-05-15,17100.0
1979-05-16,17319.0
1979-05-17,16729.0
1979-05-18,16530.0
1979-05-19,16431.0
1979-05-20,15976.0
1979-05-21,16591.0
1979-05-22,16837.0
1979-05-23,16884.0
1979-05-24,17102.0
1979-05-25,16937.0
1979-05-26,16822.0
1979-05-27,16699.0
1979-05-28,16916.0
1979-05-29,16964.0
1979-05-30,17034.0
1979-05-31,16770.0
1979-06-01,17108.0
1979-06-02,16781.0
1979-06-03,16568.0
1979-06-04,16310.0
1979-06-05,16937.0
1979-06-06,17002.0
1979-06-07,16964.0
1979-06-08,16568.0
1979-06-09,16232.0
1979-06-10,16134.0
1979-06-11,15851.0
1979-06-12,16226.0
1979-06-13,17017.0
1979-06-14,17346.0
1979-06-15,16852.0
1979-06-16,16946.0
1979-06-17,16443.0
1979-06-18,16641.0
1979-06-19,16278.0
1979-06-20,17064.0
1979-06-21,16758.0
1979-06-22,16521.0
1979-06-23,16999.0
1979-06-24,16550.0
1979-06-25,17111.0
1979-06-26,16734.0
1979-06-27,17111.0
1979-06-28,17260.0
1979-06-29,16726.0
1979-06-30,16902.0
1979-07-01,15870.0
1979-07-02,17114.0
1979-07-03,17242.0
1979-07-04,16922.0
1979-07-05,17043.0
1979-07-06,16893.0
1979-07-07,17031.0
1979-07-08,16440.0
1979-07-09,16840.0
1979-07-10,16964.0
1979-07-11,17310.0
1979-07-12,17469.0
1979-07-13,17367.0
1979-07-14,17290.0
1979-07-15,17278.0
1979-07-16,17292.0
1979-07-17,16855.0
1979-07-18,17281.0
1979-07-19,17349.0
1979-07-20,17493.0
1979-07-21,17580.0
1979-07-22,17061.0
1979-07-23,17496.0
1979-07-24,17616.0
1979-07-25,17406.0
1979-07-26,17301.0
1979-07-27,17622.0
1979-07-28,17102.0
1979-07-29,17301.0
1979-07-30,16996.0
1979-07-31,17637.0
1979-08-01,16911.0
1979-08-02,17180.0
1979-08-03,17239.0
1979-08-04,17105.0
1979-08-05,17242.0
1979-08-06,17499.0
1979-08-07,17114.0
1979-08-08,17079.0
1979-08-09,17055.0
1979-08-10,16996.0
1979-08-11,17070.0
1979-08-12,17180.0
1979-08-13,16802.0
1979-08-14,16258.0
1979-08-15,17105.0
1979-08-16,17254.0
1979-08-17,17117.0
1979-08-18,17493.0
1979-08-19,16516.0
1979-08-20,17138.0
1979-08-21,17026.0
1979-08-22,15839.0
1979-08-23,16987.0
1979-08-24,16978.0
1979-08-25,17088.0
1979-08-26,17421.0
1979-08-27,17394.0
1979-08-28,17322.0
1979-08-29,17284.0
1979-08-30,17469.0
1979-08-31,17138.0
1979-09-01,17203.0
1979-09-02,16729.0
1979-09-03,17272.0
1979-09-04,16958.0
1979-09-05,16887.0
1979-09-06,16647.0
1979-09-07,16884.0
1979-09-08,17571.0
1979-09-09,17307.0
1979-09-10,17194.0
1979-09-11,16816.0
1979-09-12,16454.0
1979-09-13,16872.0
1979-09-14,17138.0
1979-09-15,17008.0
1979-09-16,16696.0
1979-09-17,16831.0
1979-09-18,16516.0
1979-09-19,17260.0
1979-09-20,17307.0
1979-09-21,16629.0
1979-09-22,15336.0
1979-09-23,16261.0
1979-09-24,17316.0
1979-09-25,17469.0
1979-09-26,17088.0
1979-09-27,17206.0
1979-09-28,17370.0
1979-09-29,16943.0
1979-09-30,16764.0
1979-10-01,17120.0
1979-10-02,17254.0
1979-10-03,17111.0
1979-10-04,16096.0
1979-10-05,15342.0
1979-10-06,16454.0
1979-10-07,16775.0
1979-10-08,17340.0
1979-10-09,16931.0
1979-10-10,17290.0
1979-10-11,16585.0
1979-10-12,17046.0
1979-10-13,16887.0
1979-10-14,16489.0
1979-10-15,15999.0
1979-10-16,17316.0
1979-10-17,16978.0
1979-10-18,16376.0
1979-10-19,16344.0
1979-10-20,16454.0
1979-10-21,15833.0
1979-10-22,16414.0
1979-10-23,17005.0
1979-10-24,16478.0
1979-10-25,16641.0
1979-10-26,15913.0
1979-10-27,15274.0
1979-10-28,15669.0
1979-10-29,17215.0
1979-10-30,17200.0
1979-10-31,16556.0
1979-11-01,17269.0
1979-11-02,16183.0
1979-11-03,16272.0
1979-11-04,16051.0
1979-11-05,17061.0
1979-11-06,17290.0
1979-11-07,16919.0
1979-11-08,16408.0
1979-11-09,16287.0
1979-11-10,14356.0
1979-11-11,14408.0
1979-11-12,14289.0
1979-11-13,14199.0
1979-11-14,14827.0
1979-11-15,14907.0
1979-11-16,14654.0
1979-11-17,14654.0
1979-11-18,14321.0
1979-11-19,15021.0
1979-11-20,14943.0
1979-11-21,14979.0
1979-11-22,14446.0
1979-11-23,14860.0
1979-11-24,14813.0
1979-11-25,15096.0
1979-11-26,16501.0
1979-11-27,17209.0
1979-11-28,16908.0
1979-11-29,17409.0
1979-11-30,17150.0
1979-12-01,17313.0
1979-12-02,15637.0
1979-12-03,15751.0
1979-12-04,15831.0
1979-12-05,16559.0
1979-12-06,16981.0
1979-12-07,17331.0
1979-12-08,17138.0
1979-12-09,16884.0
1979-12-10,17037.0
1979-12-11,17108.0
1979-12-12,16937.0
1979-12-13,16887.0
1979-12-14,16154.0
1979-12-15,17242.0
1979-12-16,16076.0
1979-12-17,16761.0
1979-12-18,16019.0
1979-12-19,16811.0
1979-12-20,16653.0
1979-12-21,16955.0
1979-12-22,17529.0
1979-12-23,17254.0
1979-12-24,16699.0
1979-12-25,16822.0
1979-12-26,15885.0
1979-12-27,17064.0
1979-12-28,16492.0
1979-12-29,16365.0
1979-12-30,15899.0
1979-12-31,17224.0
1980-01-01,15876.0
1980-01-02,16943.0
1980-01-03,16580.0
1980-01-04,17082.0
1980-01-05,16501.0
1980-01-06,16990.0
1980-01-07,17233.0
1980-01-08,17209.0
1980-01-09,16117.0
1980-01-10,16981.0
1980-01-11,16981.0
1980-01-12,16676.0
1980-01-13,17168.0
1980-01-14,17310.0
1980-01-15,17206.0
1980-01-16,16304.0
1980-01-17,16042.0
1980-01-18,17026.0
1980-01-19,16423.0
1980-01-20,17117.0
1980-01-21,16705.0
1980-01-22,17224.0
1980-01-23,16749.0
1980-01-24,16428.0
1980-01-25,17514.0
1980-01-26,16128.0
1980-01-27,16209.0
1980-01-28,17165.0
1980-01-29,17481.0
1980-01-30,17132.0
1980-01-31,17242.0
1980-02-01,16981.0
1980-02-02,16492.0
1980-02-03,16837.0
1980-02-04,16545.0
1980-02-05,16661.0
1980-02-06,17014.0
1980-02-07,17061.0
1980-02-08,17138.0
1980-02-09,16641.0
1980-02-10,17005.0
1980-02-11,16925.0
1980-02-12,16843.0
1980-02-13,16781.0
1980-02-14,17269.0
1980-02-15,16943.0
1980-02-16,17824.0
1980-02-17,16846.0
1980-02-18,17457.0
1980-02-19,17153.0
1980-02-20,16908.0
1980-02-21,17227.0
1980-02-22,16726.0
1980-02-23,17394.0
1980-02-24,16327.0
1980-02-25,16533.0
1980-02-26,16431.0
1980-02-27,16289.0
1980-02-28,17046.0
1980-02-29,16504.0
1980-03-01,16723.0
1980-03-02,16016.0
1980-03-03,15618.0
1980-03-04,15754.0
1980-03-05,16542.0
1980-03-06,16635.0
1980-03-07,16486.0
1980-03-08,16562.0
1980-03-09,15703.0
1980-03-10,16720.0
1980-03-11,16200.0
1980-03-12,16682.0
1980-03-13,16667.0
1980-03-14,16981.0
1980-03-15,17400.0
1980-03-16,16594.0
1980-03-17,17379.0
1980-03-18,17269.0
1980-03-19,17442.0
1980-03-20,17343.0
1980-03-21,17002.0
1980-03-22,17242.0
1980-03-23,16585.0
1980-03-24,17014.0
1980-03-25,17218.0
1980-03-26,16905.0
1980-03-27,16905.0
1980-03-28,16289.0
1980-03-29,15796.0
1980-03-30,17227.0
1980-03-31,16655.0
1980-04-01,16658.0
1980-04-02,16623.0
1980-04-03,16717.0
1980-04-04,16565.0
1980-04-05,15970.0
1980-04-06,15409.0
1980-04-07,16010.0
1980-04-08,16516.0
1980-04-09,16385.0
1980-04-10,17020.0
1980-04-11,17544.0
1980-04-12,17200.0
1980-04-13,16696.0
1980-04-14,16440.0
1980-04-15,17031.0
1980-04-16,17310.0
1980-04-17,16990.0
1980-04-18,16295.0
1980-04-19,16755.0
1980-04-20,17031.0
1980-04-21,17436.0
1980-04-22,17082.0
1980-04-23,17011.0
1980-04-24,16975.0
1980-04-25,16658.0
1980-04-26,16664.0
1980-04-27,17182.0
1980-04-28,17385.0
1980-04-29,17212.0
1980-04-30,16278.0
1980-05-01,16609.0
1980-05-02,15734.0
1980-05-03,15683.0
1980-05-04,15462.0
1980-05-05,15110.0
1980-05-06,15118.0
1980-05-07,15168.0
1980-05-08,15124.0
1980-05-09,15101.0
1980-05-10,15782.0
1980-05-11,16315.0
1980-05-12,16266.0
1980-05-13,16301.0
1980-05-14,17224.0
1980-05-15,16650.0
1980-05-16,17487.0
1980-05-17,17177.0
1980-05-18,17388.0
1980-05-19,17236.0
1980-05-20,16758.0
1980-05-21,17242.0
1980-05-22,17355.0
1980-05-23,17165.0
1980-05-24,17451.0
1980-05-25,16843.0
1980-05-26,17278.0
1980-05-27,16875.0
1980-05-28,16673.0
1980-05-29,15908.0
1980-05-30,16521.0
1980-05-31,17188.0
1980-06-01,15968.0
1980-06-02,16702.0
1980-06-03,16837.0
1980-06-04,16958.0
1980-06-05,16472.0
1980-06-06,16206.0
1980-06-07,16469.0
1980-06-08,16861.0
1980-06-09,16887.0
1980-06-10,17129.0
1980-06-11,16691.0
1980-06-12,16206.0
1980-06-13,16168.0
1980-06-14,15680.0
1980-06-15,16949.0
1980-06-16,16330.0
1980-06-17,16489.0
1980-06-18,15465.0
1980-06-19,16289.0
1980-06-20,17094.0
1980-06-21,17307.0
1980-06-22,16843.0
1980-06-23,16235.0
1980-06-24,16632.0
1980-06-25,15703.0
1980-06-26,16615.0
1980-06-27,16685.0
1980-06-28,17421.0
1980-06-29,16723.0
1980-06-30,15956.0
1980-07-01,16344.0
1980-07-02,15714.0
1980-07-03,16131.0
1980-07-04,16045.0
1980-07-05,16825.0
1980-07-06,17073.0
1980-07-07,16975.0
1980-07-08,16975.0
1980-07-09,17177.0
1980-07-10,17017.0
1980-07-11,16463.0
1980-07-12,15979.0
1980-07-13,17020.0
1980-07-14,16324.0
1980-07-15,16696.0
1980-07-16,17064.0
1980-07-17,17034.0
1980-07-18,17331.0
1980-07-19,16134.0
1980-07-20,16223.0
1980-07-21,16405.0
1980-07-22,17469.0
1980-07-23,17376.0
1980-07-24,17002.0
1980-07-25,17043.0
1980-07-26,16693.0
1980-07-27,16685.0
1980-07-28,16767.0
1980-07-29,16852.0
1980-07-30,17304.0
1980-07-31,17023.0
1980-08-01,17029.0
1980-08-02,16884.0
1980-08-03,17574.0
1980-08-04,17469.0
1980-08-05,15536.0
1980-08-06,14536.0
1980-08-07,14337.0
1980-08-08,14811.0
1980-08-09,15530.0
1980-08-10,16200.0
1980-08-11,16051.0
1980-08-12,16550.0
1980-08-13,16562.0
1980-08-14,17200.0
1980-08-15,16382.0
1980-08-16,16641.0
1980-08-17,15982.0
1980-08-18,17070.0
1980-08-19,15908.0
1980-08-20,16743.0
1980-08-21,17287.0
1980-08-22,16723.0
1980-08-23,17310.0
1980-08-24,16399.0
1980-08-25,14844.0
1980-08-26,13896.0
1980-08-27,15216.0
1980-08-28,16065.0
1980-08-29,17601.0
1980-08-30,17310.0
1980-08-31,17598.0
1980-09-01,16922.0
1980-09-02,17188.0
1980-09-03,16580.0
1980-09-04,17129.0
1980-09-05,17123.0
1980-09-06,17385.0
1980-09-07,17358.0
1980-09-08,17400.0